Location: Beuerbach
(48.1459°N, 10.9174°E)
Time: 09:00:09
(UTC+00:00)

SAR-Lupe-1 - Pass Details

Date: 23 May 2024
Orbit: 479 x 482 km, 98.1° (Epoch: 04 May)

Event Time Altitude Azimuth Distance (km) Brightness Sun altitude
Rises 02:31:55 0° 10° (N) 2,553 8.7 -8.1°
Reaches altitude 10° 02:34:00 10° 6° (N) 1,668 7.6 -7.9°
Maximum altitude 02:37:31 55° 288° (WNW) 586 4.3 -7.4°
Drops below altitude 10° 02:40:59 10° 210° (SSW) 1,654 6.2 -7.0°
Enters shadow 02:41:25 - 209° (SSW) 1,831 6.4 -6.9°
